Home > Weather > Kingston > Past weeks

Flag for Norfolk Island Weather for the Past 2 Weeks in Kingston, Norfolk Island

Now
72 °F

Passing clouds.


Feels Like: 69 °F
Forecast: 69 / 72 °F
Wind: 9 mph from Northeast

Location: Norfolk Island Airport

Current Time: May 4, 2016 at 5:23:37 PM

Latest Report: May 4, 2016 at 4:30 PM


Visibility: N/A

Pressure: 30.04 "Hg

Humidity: 88%

Dew Point: 68 °F

Location of KingstonLocation

Historic Weather in Kingston — Graph

°F

Kingston Temperature Yesterday

Maximum temperature yesterday: 73 °F (at 9:00 AM)
Minimum temperature yesterday: 68 °F (at 12:30 AM)
Average temperature yesterday: 71 °F

High & Low Weather Summary for the Past Weeks

 TemperatureHumidityPressure
High77 °F (Apr 24, 11:30 AM)100% (Apr 24, 6:00 PM)30.30 "Hg (Apr 24, 6:00 PM)
Low64 °F (Apr 25, 12:00 AM)53% (Apr 27, 6:30 AM)29.86 "Hg (Apr 24, 2:00 PM)
Average70 °F77%30.15 "Hg
* Reported Apr 19 3:00 PM — May 4 3:30 PM, Kingston, Weather by CustomWeather, © 2016

Note: Actual official high and low records may vary slightly from our data, if they occured in-between our weather recording intervals... More about our weather records

Advertising

Kingston Weather History for the Previous 24 Hours

Scroll right to see more
 ConditionsComfort  
Time TempWeatherWind HumidityBarometerVisibility
3:30 PM
Wed, May 4
72 °FPartly sunny.12 mph88%30.04 "Hg6 mi
3:00 PM73 °FPartly sunny.12 mph83%30.04 "Hg6 mi
2:00 PM73 °FBroken clouds.12 mph83%30.04 "Hg6 mi
1:30 PM75 °FBroken clouds.10 mph83%30.04 "Hg6 mi
1:00 PM73 °FBroken clouds.12 mph83%30.07 "Hg6 mi
12:30 PM73 °FBroken clouds.12 mph83%30.07 "Hg6 mi
12:00 PM73 °FPartly sunny.14 mph83%30.07 "Hg6 mi
11:30 AM73 °FPartly sunny.9 mph83%30.07 "Hg6 mi
11:00 AM75 °FPartly sunny.13 mph78%30.09 "Hg6 mi
10:30 AM73 °FPartly sunny.12 mph83%30.09 "Hg6 mi
10:00 AM73 °FPartly sunny.10 mph83%30.09 "HgN/A
9:30 AM72 °FPartly sunny.13 mph88%30.09 "HgN/A
9:00 AM72 °FOvercast.13 mph88%30.07 "HgN/A
8:00 AM72 °FLight rain. Partly sunny.15 mph88%30.07 "HgN/A
7:00 AM72 °FPartly sunny.14 mph88%30.07 "HgN/A
6:30 AM72 °FScattered clouds.15 mph83%30.04 "HgN/A
6:00 AM72 °FSunny.13 mph83%30.04 "HgN/A
5:30 AM72 °FSunny.12 mph83%30.04 "HgN/A
5:00 AM72 °FClear.10 mph88%30.04 "HgN/A
4:00 AM72 °FClear.10 mph88%30.07 "HgN/A
3:00 AM72 °FClear.9 mph83%30.07 "HgN/A
2:30 AM72 °FClear.9 mph83%30.07 "HgN/A
2:00 AM72 °FClear.12 mph83%30.07 "HgN/A
1:00 AM72 °FClear.10 mph83%30.07 "HgN/A
12:00 AM72 °FClear.12 mph83%30.07 "HgN/A
11:30 PM
Tue, May 3
72 °FPassing clouds.12 mph83%30.09 "HgN/A
10:30 PM72 °FClear.10 mph83%30.09 "HgN/A
10:00 PM72 °FPassing clouds.12 mph83%30.09 "HgN/A
9:30 PM72 °FClear.10 mph78%30.09 "HgN/A
9:00 PM72 °FClear.12 mph83%30.09 "HgN/A
8:30 PM72 °FClear.10 mph78%30.09 "HgN/A
8:00 PM72 °FClear.12 mph78%30.09 "HgN/A
7:30 PM70 °FPassing clouds.12 mph83%30.07 "HgN/A
7:00 PM70 °FClear.12 mph83%30.07 "HgN/A
6:00 PM70 °FClear.12 mph83%30.07 "HgN/A
5:30 PM70 °FClear.10 mph83%30.07 "HgN/A
5:00 PM72 °FClear.10 mph78%30.07 "HgN/A
Weather by CustomWeather, © 2016

See weather overviewHow to use our weather pages